| time (UTC) | temp F | wind direction | speed MPH | gust MPH | rain 1hr in | rain 24hr in | rain mn in | humidity % | barometer mb |
| 20260509053046 | 55 | 63 | 0.0 | 2.0 | 0.00 | 0.00 | 0.00 | 44 | 1006.8 |
| 20260509051527 | 55 | 63 | 0.0 | 3.0 | 0.00 | 0.00 | 0.00 | 44 | 1006.6 |
| 20260509050028 | 56 | 63 | 0.0 | 0.0 | 0.00 | 0.00 | 0.00 | 43 | 1006.5 |
| 20260509044526 | 56 | 63 | 0.0 | 7.0 | 0.00 | 0.00 | 0.00 | 42 | 1006.3 |
| 20260509043038 | 57 | 46 | 0.0 | 3.0 | 0.00 | 0.00 | 0.00 | 40 | 1006.1 |
| 20260509041526 | 58 | 31 | 1.0 | 6.0 | 0.00 | 0.00 | 0.00 | 36 | 1005.8 |
| 20260509040027 | 58 | 28 | 2.0 | 9.0 | 0.00 | 0.00 | 0.00 | 35 | 1005.6 |
| 20260509034524 | 55 | 301 | 0.0 | 1.0 | 0.00 | 0.00 | 0.00 | 40 | 1005.2 |
| 20260509033025 | 56 | 301 | 0.0 | 3.0 | 0.00 | 0.00 | 0.00 | 39 | 1005.0 |
| 20260509031525 | 57 | 301 | 0.0 | 0.0 | 0.00 | 0.00 | 0.00 | 37 | 1004.7 |
| 20260509030024 | 59 | 301 | 0.0 | 0.0 | 0.00 | 0.00 | 0.00 | 33 | 1004.4 |
| 20260509024524 | 61 | 29 | 0.0 | 4.0 | 0.00 | 0.00 | 0.00 | 31 | 1004.0 |
| 20260509023025 | 62 | 29 | 0.0 | 0.0 | 0.00 | 0.00 | 0.00 | 29 | 1003.9 |
| 20260509021522 | 63 | 27 | 1.0 | 4.0 | 0.00 | 0.00 | 0.00 | 28 | 1003.7 |
| 20260509020021 | 65 | 24 | 1.0 | 9.0 | 0.00 | 0.00 | 0.00 | 27 | 1003.6 |
| 20260509014621 | 66 | 27 | 4.0 | 10.0 | 0.00 | 0.00 | 0.00 | 25 | 1003.6 |
| 20260509013020 | 67 | 33 | 8.0 | 12.0 | 0.00 | 0.00 | 0.00 | 25 | 1003.6 |
| 20260509011520 | 68 | 23 | 9.0 | 14.0 | 0.00 | 0.00 | 0.00 | 24 | 1003.5 |
| 20260509010029 | 68 | 345 | 2.0 | 9.0 | 0.00 | 0.00 | 0.00 | 23 | 1003.4 |
| 20260509004523 | 68 | 17 | 2.0 | 12.0 | 0.00 | 0.00 | 0.00 | 23 | 1003.3 |
| 20260509003019 | 69 | 31 | 8.0 | 17.0 | 0.00 | 0.00 | 0.00 | 23 | 1003.2 |
| 20260509001517 | 69 | 360 | 5.0 | 16.0 | 0.00 | 0.00 | 0.00 | 24 | 1003.2 |
| 20260509000017 | 70 | 360 | 4.0 | 22.0 | 0.00 | 0.00 | 0.00 | 25 | 1003.0 |
| 20260508234517 | 71 | 360 | 6.0 | 18.0 | 0.00 | 0.00 | 0.00 | 24 | 1003.1 |
| 20260508233017 | 73 | 10 | 5.0 | 16.0 | 0.00 | 0.00 | 0.00 | 23 | 1002.9 |
| 20260508231515 | 72 | 322 | 6.0 | 17.0 | 0.00 | 0.00 | 0.00 | 23 | 1003.0 |
| 20260508230015 | 73 | 326 | 4.0 | 18.0 | 0.00 | 0.00 | 0.00 | 21 | 1002.9 |
| 20260508224520 | 73 | 337 | 10.0 | 22.0 | 0.00 | 0.00 | 0.00 | 22 | 1002.9 |
| 20260508223014 | 73 | 322 | 8.0 | 18.0 | 0.00 | 0.00 | 0.00 | 21 | 1003.2 |
| 20260508221511 | 73 | 328 | 5.0 | 20.0 | 0.00 | 0.00 | 0.00 | 21 | 1003.3 |
| 20260508220010 | 73 | 326 | 6.0 | 20.0 | 0.00 | 0.00 | 0.00 | 24 | 1003.5 |
| 20260508214522 | 73 | 311 | 7.0 | 16.0 | 0.00 | 0.00 | 0.00 | 21 | 1003.6 |
| 20260508213008 | 74 | 322 | 10.0 | 21.0 | 0.00 | 0.00 | 0.00 | 21 | 1003.7 |
| 20260508211512 | 72 | 307 | 15.0 | 26.0 | 0.00 | 0.00 | 0.00 | 20 | 1003.6 |
| 20260508210012 | 73 | 336 | 5.0 | 21.0 | 0.00 | 0.00 | 0.00 | 23 | 1003.7 |
| 20260508204505 | 73 | 308 | 16.0 | 24.0 | 0.00 | 0.00 | 0.00 | 19 | 1003.8 |
| 20260508203004 | 72 | 298 | 12.0 | 23.0 | 0.00 | 0.00 | 0.00 | 23 | 1003.9 |
| 20260508201503 | 72 | 327 | 9.0 | 16.0 | 0.00 | 0.00 | 0.00 | 24 | 1003.8 |
| 20260508200004 | 72 | 309 | 11.0 | 21.0 | 0.00 | 0.00 | 0.00 | 25 | 1003.8 |
| 20260508194608 | 72 | 304 | 7.0 | 19.0 | 0.00 | 0.00 | 0.00 | 25 | 1004.0 |
| 20260508193120 | 72 | 327 | 8.0 | 39.0 | 0.00 | 0.00 | 0.00 | 24 | 1004.1 |
| 20260508191607 | 73 | 309 | 8.0 | 22.0 | 0.00 | 0.00 | 0.00 | 24 | 1004.3 |
| 20260508190112 | 72 | 324 | 11.0 | 18.0 | 0.00 | 0.00 | 0.00 | 25 | 1004.4 |
| 20260508184555 | 72 | 281 | 9.0 | 22.0 | 0.00 | 0.00 | 0.00 | 25 | 1004.7 |
| 20260508183051 | 70 | 262 | 12.0 | 20.0 | 0.00 | 0.00 | 0.00 | 27 | 1004.9 |
| 20260508181553 | 69 | 289 | 8.0 | 19.0 | 0.00 | 0.00 | 0.00 | 29 | 1005.1 |
| 20260508180046 | 70 | 334 | 8.0 | 30.0 | 0.00 | 0.00 | 0.00 | 30 | 1005.2 |
| 20260508174548 | 70 | 312 | 5.0 | 17.0 | 0.00 | 0.00 | 0.00 | 30 | 1005.2 |
| 20260508173040 | 69 | 322 | 3.0 | 19.0 | 0.00 | 0.00 | 0.00 | 33 | 1005.5 |
| 20260508171543 | 66 | 325 | 3.0 | 10.0 | 0.00 | 0.00 | 0.00 | 33 | 1005.7 |
| 20260508170036 | 68 | 345 | 2.0 | 8.0 | 0.00 | 0.00 | 0.00 | 31 | 1005.8 |
| 20260508164535 | 68 | 349 | 3.0 | 10.0 | 0.00 | 0.00 | 0.00 | 33 | 1005.8 |
| 20260508163036 | 69 | 353 | 3.0 | 11.0 | 0.00 | 0.00 | 0.00 | 33 | 1006.1 |
| 20260508161543 | 67 | 327 | 1.0 | 5.0 | 0.00 | 0.00 | 0.00 | 36 | 1006.2 |
| 20260508160022 | 66 | 309 | 8.0 | 18.0 | 0.00 | 0.00 | 0.00 | 38 | 1006.3 |
| 20260508154521 | 65 | 253 | 14.0 | 18.0 | 0.00 | 0.00 | 0.00 | 39 | 1006.3 |
| 20260508153027 | 64 | 242 | 11.0 | 18.0 | 0.00 | 0.00 | 0.00 | 40 | 1006.6 |
| 20260508151511 | 64 | 234 | 13.0 | 18.0 | 0.00 | 0.00 | 0.00 | 40 | 1006.6 |
| 20260508150006 | 61 | 233 | 10.0 | 14.0 | 0.00 | 0.00 | 0.00 | 46 | 1006.9 |
| 20260508144503 | 59 | 201 | 7.0 | 10.0 | 0.00 | 0.00 | 0.00 | 49 | 1007.1 |
| 20260508143118 | 61 | 203 | 7.0 | 10.0 | 0.00 | 0.00 | 0.00 | 42 | 1007.4 |
| 20260508141602 | 59 | 180 | 4.0 | 7.0 | 0.00 | 0.00 | 0.00 | 46 | 1007.5 |
| 20260508140105 | 56 | 97 | 0.0 | 3.0 | 0.00 | 0.00 | 0.00 | 47 | 1007.7 |
| 20260508134547 | 55 | 97 | 0.0 | 4.0 | 0.00 | 0.00 | 0.00 | 51 | 1007.8 |
| 20260508133043 | 52 | 235 | 0.0 | 1.0 | 0.00 | 0.00 | 0.00 | 59 | 1007.9 |
| 20260508131541 | 49 | 235 | 0.0 | 2.0 | 0.00 | 0.00 | 0.00 | 64 | 1008.0 |
| 20260508130034 | 46 | 235 | 0.0 | 2.0 | 0.00 | 0.00 | 0.00 | 68 | 1008.1 |
| 20260508124534 | 43 | 235 | 0.0 | 0.0 | 0.00 | 0.00 | 0.00 | 69 | 1008.2 |
| 20260508123030 | 41 | 187 | 0.0 | 1.0 | 0.00 | 0.00 | 0.00 | 70 | 1008.3 |
| 20260508121528 | 40 | 276 | 0.0 | 0.0 | 0.00 | 0.00 | 0.00 | 69 | 1008.2 |
| 20260508120024 | 39 | 277 | 0.0 | 0.0 | 0.00 | 0.00 | 0.00 | 72 | 1008.2 |
| 20260508114524 | 38 | 277 | 0.0 | 1.0 | 0.00 | 0.00 | 0.00 | 70 | 1008.2 |
| 20260508113019 | 38 | 291 | 0.0 | 2.0 | 0.00 | 0.00 | 0.00 | 69 | 1008.4 |
| 20260508111517 | 40 | 291 | 0.0 | 0.0 | 0.00 | 0.00 | 0.00 | 68 | 1008.3 |
| 20260508110027 | 40 | 291 | 0.0 | 3.0 | 0.00 | 0.00 | 0.00 | 67 | 1008.5 |
| 20260508104515 | 41 | 291 | 0.0 | 1.0 | 0.00 | 0.00 | 0.00 | 64 | 1008.6 |
| 20260508103033 | 41 | 291 | 0.0 | 0.0 | 0.00 | 0.00 | 0.00 | 65 | 1008.6 |
| 20260508101511 | 41 | 291 | 0.0 | 0.0 | 0.00 | 0.00 | 0.00 | 64 | 1008.6 |
| 20260508100010 | 41 | 291 | 0.0 | 1.0 | 0.00 | 0.00 | 0.00 | 65 | 1008.5 |
| 20260508094508 | 41 | 291 | 0.0 | 0.0 | 0.00 | 0.00 | 0.00 | 64 | 1008.4 |
| 20260508093010 | 41 | 291 | 0.0 | 0.0 | 0.00 | 0.00 | 0.00 | 64 | 1008.5 |
| 20260508091510 | 42 | 291 | 0.0 | 1.0 | 0.00 | 0.00 | 0.00 | 63 | 1008.5 |
| 20260508090007 | 41 | 291 | 0.0 | 1.0 | 0.00 | 0.00 | 0.00 | 64 | 1008.5 |
| 20260508084504 | 42 | 291 | 0.0 | 2.0 | 0.00 | 0.00 | 0.00 | 62 | 1008.6 |
| 20260508083004 | 43 | 291 | 0.0 | 0.0 | 0.00 | 0.00 | 0.00 | 61 | 1008.4 |
| 20260508081503 | 43 | 291 | 0.0 | 4.0 | 0.00 | 0.00 | 0.00 | 61 | 1008.5 |
| 20260508080003 | 44 | 291 | 1.0 | 3.0 | 0.00 | 0.00 | 0.00 | 59 | 1008.6 |
| 20260508074608 | 42 | 291 | 0.0 | 3.0 | 0.00 | 0.00 | 0.00 | 62 | 1008.6 |
| 20260508073100 | 43 | 291 | 0.0 | 2.0 | 0.00 | 0.00 | 0.00 | 60 | 1008.6 |
| 20260508071556 | 43 | 291 | 0.0 | 2.0 | 0.00 | 0.00 | 0.00 | 59 | 1008.5 |
| 20260508070052 | 44 | 291 | 0.0 | 2.0 | 0.00 | 0.00 | 0.00 | 58 | 1008.4 |
| 20260508064549 | 45 | 291 | 0.0 | 3.0 | 0.00 | 0.00 | 0.00 | 55 | 1008.4 |
| 20260508063054 | 45 | 291 | 0.0 | 4.0 | 0.00 | 0.00 | 0.00 | 55 | 1008.3 |
| 20260508061547 | 45 | 291 | 0.0 | 1.0 | 0.00 | 0.00 | 0.00 | 55 | 1008.3 |
| 20260508060056 | 47 | 291 | 0.0 | 5.0 | 0.00 | 0.01 | 0.00 | 53 | 1008.2 |
| 20260508054618 | 48 | 291 | 0.0 | 2.0 | 0.00 | 0.01 | 0.00 | 50 | 1008.0 |